Abilene Dyess, TX

3:31 PM CDT on April 29, 2017 (GMT -0500)
Dyess Air Force Base

Weather History for KDYS - January, 2013

Change the Weather History Date:

Monday, January 7, 2013

  Actual Average Record
Temperature  
Mean Temperature 36 °F -  
Max Temperature 52 °F 56 °F 82 °F (2006)
Min Temperature 21 °F 34 °F 12 °F (2017)
Degree Days  
Heating Degree Days 28    
Moisture  
Dew Point 24 °F    
Average Humidity 57    
Maximum Humidity 76    
Minimum Humidity 36    
Precipitation  
Precipitation 0.00 in - - ()
Sea Level Pressure  
Sea Level Pressure 30.18 in    
Wind  
Wind Speed 7 mph (SSE)    
Max Wind Speed 17 mph    
Max Gust Speed -    
Visibility 10 miles    
Events      
Averages and records for this station are not official NWS values.
T = Trace of Precipitation, MM = Missing Value Source: NWS Daily Summary

Daily Weather History Graph

Daily Weather History Graph

Search for Another Location

Airport or City:

Trip Planner

Search our weather history database for the weather conditions in past years. The results will help you decide how hot, cold, wet, or windy it might be!

Date:

Astronomy

Jan. 07, 2013 Rise Set
Actual Time 7:41 AM CST 5:50 PM CST
Civil Twilight 7:14 AM CST 6:17 PM CST
Nautical Twilight 6:44 AM CST 6:47 PM CST
Astronomical Twilight 6:14 AM CST 7:17 PM CST
Moon 3:11 AM CST (1/7) 1:59 PM CST (1/7)
Length of Visible Light 11h 02m
Length of Day
10h 08m
Waning Crescent, 22% of the Moon is Illuminated
Jan 7
Waning Crescent
Jan 11
New
Jan 18
First Quarter
Jan 26
Full
Feb 3
Last Quarter

Hourly Weather History & Observations

Time (CST) Temp. Windchill Dew Point Humidity Pressure Visibility Wind Dir Wind Speed Gust Speed Precip Events Conditions
12:55 AM 25.2 °F 20.9 °F 16.0 °F 68% 30.30 in 10.0 mi SW 3.5 mph - N/A   Clear
1:55 AM 25.5 °F 21.3 °F 16.5 °F 69% 30.28 in 10.0 mi SSW 3.5 mph - N/A   Clear
2:55 AM 21.4 °F 15.1 °F 12.9 °F 70% 30.29 in 10.0 mi South 4.6 mph - N/A   Clear
3:55 AM 30.6 °F 23.1 °F 20.1 °F 65% 30.26 in 10.0 mi South 8.1 mph - N/A   Clear
4:55 AM 31.1 °F 23.7 °F 20.7 °F 65% 30.25 in 10.0 mi South 8.1 mph - N/A   Clear
5:55 AM 31.1 °F 23.1 °F 21.4 °F 67% 30.24 in 10.0 mi South 9.2 mph - N/A   Clear
6:55 AM 27.7 °F 20.4 °F 20.8 °F 75% 30.26 in 10.0 mi South 6.9 mph - N/A   Clear
7:55 AM 30.0 °F 23.2 °F 22.5 °F 73% 30.28 in 10.0 mi SSE 6.9 mph - N/A   Clear
8:55 AM 37.0 °F 31.6 °F 25.2 °F 62% 30.28 in 10.0 mi SSE 6.9 mph - N/A   Clear
9:55 AM 42.1 °F 35.7 °F 24.4 °F 50% 30.26 in 10.0 mi SE 11.5 mph - N/A   Partly Cloudy
10:55 AM 44.6 °F 37.2 °F 25.0 °F 46% 30.26 in 10.0 mi SSE 17.3 mph - N/A   Partly Cloudy
11:55 AM 46.4 °F 40.7 °F 25.2 °F 43% 30.21 in 10.0 mi South 12.7 mph - N/A   Mostly Cloudy
12:55 PM 47.7 °F - 25.3 °F 42% 30.17 in 10.0 mi SSE 13.8 mph - N/A   Mostly Cloudy
1:55 PM 49.5 °F - 25.3 °F 39% 30.12 in 10.0 mi SSE 12.7 mph - N/A   Scattered Clouds
2:55 PM 50.4 °F - 25.5 °F 38% 30.11 in 10.0 mi SSE 11.5 mph - N/A   Scattered Clouds
3:55 PM 52.0 °F - 25.5 °F 36% 30.10 in 10.0 mi SSE 11.5 mph - N/A   Partly Cloudy
4:55 PM 49.3 °F - 25.9 °F 40% 30.08 in 10.0 mi SSE 10.4 mph - N/A   Clear
5:55 PM 47.7 °F - 26.1 °F 43% 30.08 in 10.0 mi ESE 5.8 mph - N/A   Partly Cloudy
6:55 PM 45.7 °F 42.0 °F 27.0 °F 48% 30.08 in 10.0 mi ESE 6.9 mph - N/A   Partly Cloudy
7:55 PM 43.7 °F 39.7 °F 27.3 °F 53% 30.07 in 10.0 mi ESE 6.9 mph - N/A   Clear
8:55 PM 40.1 °F 36.9 °F 27.0 °F 59% 30.08 in 10.0 mi SE 4.6 mph - N/A   Clear
9:55 PM 39.6 °F - 27.5 °F 62% 30.08 in 10.0 mi Calm Calm - N/A   Clear
10:55 PM 37.8 °F 33.3 °F 28.2 °F 68% 30.07 in 10.0 mi SSE 5.8 mph - N/A   Clear
11:55 PM 33.4 °F 28.1 °F 26.6 °F 76% 30.05 in 10.0 mi SSE 5.8 mph - N/A   Clear